www.pogodaiklimat.ru

Погода и климат >> Архив погоды >> Таиланд >> Пхетчабун


ПОГОДА в Пхетчабуне

  • Прогноз погоды в Пхетчабуне
  • Монитор погоды в Пхетчабуне

АРХИВ ПОГОДЫ в Пхетчабуне

Время (UTC), дата Ветер
(напр.,м/с)
 
Видим.   Явления Облачность Т
(С)
Тd
(С)
f
(%)
Тe
(С)
Тes
(С)
Комфортность P
(гПа)
Po
(гПа)
Тmin
(С)
Tmax
(С)
R
(мм)
R24
(мм)
S
(см)
09 19.04 Ю 3 8000 м мгла 1/1 600 м
[Cu med, cong]
+41.2 +22.3 34 +49 +55 опасность
перегрева
1000.0 987.5
12 19.04 Ю 2 8000 м мгла 4/3 600 м
[Cu med, cong Cs]
+36.5 +22.8 45 +46 +46 опасность
перегрева
1001.2 988.5 +41.6
15 19.04 штиль 0 8000 м мгла ясно +32.2 +22.6 57 +42 +42 опасность
перегрева
1004.1 991.2
18 19.04 штиль 0 7000 м мгла ясно +30.5 +22.4 62 +40 +40 очень
душно
1003.6 990.6
21 19.04 штиль 0 6000 м дымка ясно +29.5 +23.7 71 +40 +40 очень
душно
1002.7 989.6
00 20.04 штиль 0 7000 м дымка ясно +28.0 +23.6 77 +38 +40 очень
душно
1004.1 991.0 +27.4
03 20.04 ЮВ 2 8000 м мгла ясно +35.5 +24.2 52 +47 +63 опасность
перегрева
1004.9 992.1
06 20.04 штиль 0 8000 м мгла 1/1 600 м
[Cu med, cong]
+39.5 +24.8 43 +52 +77 опасность
перегрева
1002.4 989.7
09 20.04 ЮЗ 2 8000 м мгла 3/3 600 м
[Cu med, cong]
+41.0 +21.6 33 +48 +53 опасность
перегрева
998.7 986.2
12 20.04 штиль 0 8000 м мгла 3/0
[Cs]
+37.5 +22.0 41 +46 +46 опасность
перегрева
999.4 986.7 +42.1
15 20.04 штиль 0 8000 м мгла ясно +33.0 +22.0 52 +41 +41 опасность
перегрева
1001.9 989.1
18 20.04 штиль 0 7000 м мгла ясно +29.6 +20.6 58 +36 +36 очень
душно
1001.9 988.9
21 20.04 штиль 0 6000 м мгла ясно +28.5 +20.1 60 +35 +35 очень
душно
1001.8 988.7
00 21.04 штиль 0 7000 м дымка ясно +27.0 +21.0 70 +34 +36 очень
душно
1003.6 990.5 +26.5
03 21.04 штиль 0 7000 м мгла ясно +35.2 +22.6 48 +44 +66 опасность
перегрева
1004.9 992.1
06 21.04 Ю 3 8000 м мгла ясно +41.0 +22.4 35 +49 +67 опасность
перегрева
1002.1 989.6
09 21.04 штиль 0 8000 м мгла 3/3 600 м
[Cu med, cong]
+42.0 +19.9 28 +47 +54 опасность
перегрева
999.6 987.1
12 21.04 штиль 0 8000 м мгла 6/3 600 м
[Sc Cs]
+37.0 +19.9 37 +43 +43 опасность
перегрева
999.5 986.8 +42.6
15 21.04 штиль 0 7000 м мгла 3/3 600 м
[Cu hum]
+33.1 +20.6 48 +40 +40 очень
душно
1003.0 990.1
18 21.04 штиль 0 7000 м мгла ясно +30.5 +22.4 62 +40 +40 очень
душно
1002.6 989.6
21 21.04 штиль 0 7000 м дымка ясно +28.5 +22.1 68 +37 +37 очень
душно
1002.5 989.4
00 22.04 штиль 0 6000 м дымка ясно +27.8 +22.6 73 +37 +38 очень
душно
1005.0 991.8 +26.7
03 22.04 ЮВ 2 7000 м мгла ясно +35.8 +24.2 51 +48 +63 опасность
перегрева
1005.8 993.0
06 22.04 Ю 3 8000 м мгла 1/1 600 м
[Cb calv]
+40.5 +21.9 35 +48 +64 опасность
перегрева
1003.3 990.7
09 22.04 штиль 0 8000 м мгла 4/3 600 м
[Cb cap Ac trans Cs]
+41.5 +23.1 35 +50 +57 опасность
перегрева
999.5 987.0
12 22.04 СВ 3 8000 м дымка {гроза} 10/4 600 м
[Cb cap Ac As Cs]
+25.6 +24.0 91 +35 +35 очень
душно
1005.4 992.1 +42.0 30
15 22.04 СЗ 2 8000 м дымка {дождь} 10/4 600 м
[Cu Sc Ac As Cs]
+25.5 +24.0 91 +35 +35 очень
душно
1010.1 996.8 4
18 22.04 штиль 0 7000 м дымка {дождь} 10/4 600 м
[Sc Ac As Cs]
+25.6 +24.4 93 +36 +36 очень
душно
1008.3 995.0 34
21 22.04 штиль 0 7000 м слаб. дождь 10/5 600 м
[Sc Ac As Cs]
+25.3 +24.3 94 +35 +35 очень
душно
1007.2 993.9 0.2
00 23.04 штиль 0 8000 м дымка {дождь} 9/4 600 м
[Sc Ac trans Cs]
+25.2 +24.2 94 +35 +35 очень
душно
1007.6 994.3 +24.3 0.1
03 23.04 штиль 0 10 км 4/1 600 м
[Sc Ac trans]
+29.5 +24.2 73 +41 +56 опасность
перегрева
1008.7 995.6
06 23.04 штиль 0 10 км 5/1 600 м
[Cu Sc Ac trans]
+33.3 +23.5 57 +44 +64 опасность
перегрева
1007.7 994.8
09 23.04 Ю 2 10 км 5/1 600 м
[Cu Sc Ac trans]
+34.2 +24.4 57 +47 +52 опасность
перегрева
1005.1 992.2
12 23.04 штиль 0 10 км 3/1 600 м
[Cu Sc Ac trans]
+31.6 +23.7 63 +43 +43 опасность
перегрева
1005.2 992.2 +35.2
15 23.04 штиль 0 8000 м дымка 1/0
[Ac trans]
+28.6 +24.1 77 +40 +40 очень
душно
1007.7 994.5
18 23.04 штиль 0 8000 м дымка 1/0
[Ac trans]
+26.9 +24.3 86 +38 +38 очень
душно
1007.2 994.0
21 23.04 штиль 0 8000 м дымка ясно +26.0 +24.0 89 +36 +36 очень
душно
1007.0 993.8
00 24.04 штиль 0 8000 м дымка ясно +25.5 +23.3 88 +34 +36 очень
душно
1009.2 995.9 +25.0
03 24.04 штиль 0 10 км ясно +33.0 +22.9 55 +43 +64 опасность
перегрева
1009.4 996.4
06 24.04 штиль 0 10 км 3/1 600 м
[Cu med, cong Cs]
+36.0 +21.3 43 +44 +69 опасность
перегрева
1008.4 995.6
09 24.04 штиль 0 10 км 3/1 600 м
[Cu med, cong Cs]
+41.0 +23.3 37 +51 +60 опасность
перегрева
1002.5 989.9
12 24.04 штиль 0 10 км 3/1 600 м
[Cu med, cong Cs]
+36.0 +22.2 45 +45 +45 опасность
перегрева
1002.8 990.1 +41.0
15 24.04 штиль 0 10 км ясно +31.3 +22.9 61 +41 +41 опасность
перегрева
1004.6 991.6
18 24.04 штиль 0 8000 м дымка ясно +28.6 +24.4 78 +40 +40 очень
душно
1004.7 991.6
21 24.04 штиль 0 8000 м дымка ясно +27.0 +24.5 86 +38 +38 очень
душно
1004.9 991.7
00 25.04 штиль 0 8000 м дымка 3/0
[Cs]
+26.7 +24.2 86 +37 +39 очень
душно
1006.4 993.2 +26.0
03 25.04 штиль 0 10 км 3/0
[Cs]
+35.0 +24.4 54 +47 +67 опасность
перегрева
1007.6 994.7
06 25.04 штиль 0 10 км 3/3 600 м
[Cb cap Cs]
+41.0 +24.2 39 +52 +72 опасность
перегрева
1004.1 991.6
09 25.04 штиль 0 10 км 3/1 600 м
[Cu med, cong Cs]
+40.2 +23.7 39 +50 +59 опасность
перегрева
1001.2 988.7
12 25.04 СВ 5 10 км 4/3 600 м
[Cu med, cong Cs]
+32.5 +20.5 49 +39 +39 очень
душно
1003.9 990.9 +41.5
15 25.04 штиль 0 10 км 3/0
[Cs]
+29.3 +21.4 62 +37 +37 очень
душно
1006.1 993.0
18 25.04 штиль 0 8000 м дымка 3/0
[Cs]
+27.7 +21.7 70 +36 +36 очень
душно
1005.3 992.1
21 25.04 штиль 0 8000 м дымка 3/0
[Cs]
+26.0 +22.3 80 +34 +34 очень
душно
1005.2 992.0
00 26.04 штиль 0 7000 м дымка ясно +26.2 +22.2 79 +34 +36 очень
душно
1006.3 993.1 +25.2
03 26.04 штиль 0 8000 м мгла ясно +32.0 +23.0 59 +42 +63 опасность
перегрева
1007.1 994.1
06 26.04 штиль 0 8000 м мгла 5/4 600 м
[Cb cap Ci ing]
+38.1 +24.6 46 +50 +67 опасность
перегрева
1003.6 990.9

 

Местоположение метеостанции Пхетчабун (Таиланд): широта 16.43 долгота 101.15 высота над уровнем моря 116 м.

В архиве по умолчанию представлена погода в Пхетчабуне за последнюю неделю. Архивные данные за месяц целиком и за предыдущие месяцы, начиная с января 2011 года, Вы можете получить, выбрав интересующий диапазон дат из раскрывающегося списка и нажав кнопку "Ввод!".


*Определитесь, кто Вы:
робот инопланетянин человек

Внимание! Время в таблицах - всемирное. Для получения местного времени необходимо прибавить поправку, которая равна 7 ч.

Смотрите также архив погоды в соседних городах и на ближайших метеорологических станциях:

Погода в Ломсаке (Таиланд) (39 км)
Погода в Вичан Бури (Таиланд) (89 км)
Погода в Пичит Агромете (Таиланд) (93 км)
Погода в Пхитсанулоке (Таиланд) (103 км)
Погода в Чайяпхуме (Таиланд) (117 км)
Погода в Лоей Агромете (Таиланд) (124 км)
Погода в Накхон Саван (Таиланд) (127 км)
Погода в Буа Чум (Таиланд) (129 км)
Погода в Лоэй (Таиланд) (129 км)
Погода в Такфа Агромете (Таиланд) (139 км)

Пояснения к столбцам:

Ветер - указаны скорость ветра в м/с - средняя за 10 мин, порывы в срок и между сроками (в фигурных скобках) и направление, откуда дует ветер: С - северный, СВ - северо-восточный, В - восточный, ЮВ - юго-восточный, Ю - южный, ЮЗ - юго-западный, З - западный, СЗ - северо-западный.
Видимость - горизонтальная дальность видимости в метрах или километрах. При видимости от 1 до 10 км при отсутствии осадков обычно наблюдается дымка, при ухудшении видимости до 1 км и менее - туман. В сухую погоду видимость может ухудшаться дымом, пылью или мглою.
Явления - указаны атмосферные явления, наблюдавшиеся в срок или в последний час перед сроком; фигурными скобками обозначены явления, наблюдавшиеся между сроками (за 1-3 часа до срока); квадратными скобками обозначены град или гололедные отложения с указанием их диаметра в мм.
Облачность - указаны через наклонную черту общая и нижняя облачность в баллах и высота нижней границы облаков в метрах; квадратными скобками обозначены формы облаков: Ci - перистые, Cs - перисто-слоистые, Cc - перисто-кучевые, Ac - высококучевые, As - высокослоистые, Sc - слоисто-кучевые, Ns - слоисто-дождевые, Cu - кучевые, Cb - кучево-дождевые. Подробнее классификацию облаков см. в Атласе облаков (PDF).
T - Температура воздуха - температура, измеренная на высоте 2 м над землей.
Td - Температура точки росы - температура, при понижении до которой содержащийся в воздухе водяной пар достигнет насыщения.
f - Относительная влажность воздуха - влажноcть воздуха, измеренная на высоте 2 м над землей.
Te - Эффективная температура - температура, которую ощущает одетый по сезону человек в тени. Характеристика душности погоды. При расчете учитывается влияние влажности воздуха и скорости ветра на теплоощущения человека.
Tes - Эффективная температура на солнце - температура, которую ощущает человек, с поправкой на солнечный нагрев. Характеристика знойности погоды. Зависит от высоты солнца над горизонтом, облачности и скорости ветра. Ночью, в пасмурную погоду, а также при ветре 12 м/с и более поправка равна нулю.
P - Атмосферное давление - приведенное к уровню моря атмосферное давление.
Po - Атмосферное давление - измеренное на уровне метеостанции атмосферное давление.
Tmin - Минимальная температура - минимум температуры воздуха на высоте 2 м над землей.
Tmax - Максимальная температура - максимум температуры воздуха на высоте 2 м над землей.
R - Количество осадков - Количество выпавших осадков за период времени, мм. При наведении курсора мыши на число - период времени, за который выпало указанное количество осадков.
R24 - Количество осадков - Количество выпавших осадков за 24 часа, мм.
S - Снежный покров - Высота снежного покрова, см. При наведении курсора мыши на число - состояние снежного покрова и степень покрытия местности в баллах.